QPF
0.08 0.07 0.12 0.11 0.06 0.04 0.03 0.04 0.05 0.06 0.07 0.08 0.07 0.07 0.07 0.06 0.06 0.07 0.07 0.06 0.06 0.06 0.06 0.08 0.10 0.12 0.10 0.08 0.08 0.08 0.08 0.06 0.05 0.04 0.05 0.07 0.05 0.06 0.05 0.04 0.03 0.02 0.03
0.09 0.07 0.10 0.09 0.04 0.03 0.03 0.03 0.04 0.04 0.04 0.04 0.05 0.05 0.06 0.06 0.06 0.07 0.05 0.04 0.05 0.06 0.06 0.08 0.10 0.12 0.12 0.10 0.09 0.08 0.07 0.08 0.09 0.06 0.06 0.06 0.05 0.05 0.05 0.05 0.05 0.04 0.05
0.10 0.09 0.10 0.08 0.04 0.03 0.05 0.05 0.04 0.03 0.03 0.03 0.04 0.05 0.05 0.06 0.06 0.05 0.04 0.06 0.08 0.07 0.07 0.09 0.11 0.16 0.15 0.13 0.12 0.08 0.05 0.12 0.21 0.16 0.08 0.04 0.03 0.03 0.03 0.05 0.06 0.06 0.06
0.07 0.08 0.08 0.07 0.06 0.04 0.04 0.04 0.03 0.02 0.02 0.04 0.05 0.06 0.06 0.06 0.06 0.04 0.04 0.05 0.08 0.09 0.10 0.12 0.17 0.21 0.16 0.14 0.11 0.08 0.07 0.10 0.15 0.22 0.12 0.04 0.02 0.03 0.03 0.04 0.05 0.04 0.05
0.06 0.05 0.06 0.06 0.05 0.05 0.03 0.03 0.03 0.03 0.02 0.03 0.04 0.06 0.06 0.08 0.08 0.06 0.05 0.05 0.08 0.10 0.13 0.18 0.20 0.17 0.13 0.10 0.09 0.08 0.09 0.12 0.12 0.12 0.09 0.04 0.02 0.03 0.04 0.05 0.05 0.05 0.05
0.08 0.04 0.05 0.06 0.05 0.05 0.04 0.02 0.03 0.03 0.03 0.03 0.05 0.06 0.07 0.10 0.13 0.11 0.07 0.07 0.09 0.11 0.14 0.16 0.12 0.08 0.06 0.06 0.07 0.07 0.08 0.10 0.12 0.06 0.04 0.04 0.03 0.03 0.05 0.06 0.07 0.05 0.06
0.08 0.04 0.05 0.05 0.05 0.06 0.05 0.04 0.04 0.05 0.04 0.04 0.06 0.08 0.08 0.15 0.26 0.17 0.10 0.09 0.08 0.09 0.09 0.09 0.06 0.04 0.03 0.04 0.06 0.07 0.07 0.08 0.08 0.06 0.05 0.04 0.04 0.03 0.05 0.07 0.07 0.07 0.06
0.03 0.03 0.04 0.05 0.04 0.04 0.04 0.04 0.05 0.05 0.05 0.04 0.05 0.07 0.08 0.16 0.23 0.18 0.12 0.12 0.12 0.12 0.12 0.11 0.07 0.05 0.05 0.06 0.08 0.09 0.09 0.06 0.06 0.06 0.04 0.04 0.03 0.04 0.06 0.07 0.09 0.09 0.07
0.02 0.03 0.03 0.03 0.04 0.03 0.03 0.03 0.04 0.04 0.05 0.06 0.06 0.05 0.05 0.08 0.08 0.08 0.09 0.15 0.19 0.18 0.15 0.14 0.10 0.08 0.07 0.09 0.14 0.14 0.12 0.09 0.06 0.05 0.05 0.05 0.05 0.06 0.08 0.08 0.09 0.09 0.07
0.04 0.03 0.02 0.03 0.02 0.02 0.02 0.03 0.04 0.05 0.05 0.05 0.04 0.04 0.04 0.04 0.04 0.05 0.05 0.12 0.21 0.21 0.18 0.17 0.12 0.11 0.10 0.10 0.20 0.23 0.17 0.11 0.09 0.06 0.05 0.06 0.08 0.10 0.10 0.09 0.08 0.07 0.07
0.06 0.05 0.04 0.02 0.03 0.01 0.02 0.03 0.04 0.05 0.06 0.06 0.04 0.04 0.05 0.03 0.02 0.03 0.03 0.07 0.12 0.16 0.19 0.17 0.13 0.12 0.11 0.11 0.15 0.20 0.13 0.07 0.08 0.07 0.05 0.05 0.07 0.08 0.08 0.09 0.10 0.08 0.08
0.03 0.04 0.05 0.03 0.03 0.02 0.02 0.03 0.03 0.02 0.03 0.03 0.03 0.04 0.03 0.02 0.01 0.02 0.04 0.07 0.09 0.12 0.18 0.16 0.13 0.12 0.10 0.08 0.10 0.11 0.07 0.06 0.07 0.06 0.05 0.04 0.05 0.07 0.08 0.11 0.11 0.11 0.13
0.02 0.03 0.03 0.04 0.04 0.03 0.02 0.02 0.02 0.02 0.03 0.03 0.02 0.02 0.03 0.02 0.02 0.02 0.03 0.05 0.05 0.07 0.11 0.11 0.10 0.08 0.06 0.06 0.07 0.06 0.04 0.05 0.07 0.10 0.10 0.05 0.05 0.07 0.11 0.14 0.13 0.13 0.15
0.02 0.02 0.02 0.03 0.04 0.03 0.01 0.01 0.01 0.02 0.02 0.02 0.02 0.03 0.03 0.03 0.03 0.04 0.03 0.03 0.03 0.05 0.08 0.08 0.06 0.05 0.05 0.05 0.06 0.05 0.04 0.04 0.06 0.08 0.07 0.04 0.04 0.05 0.08 0.10 0.11 0.12 0.13
0.02 0.02 0.02 0.02 0.03 0.02 0.01 0.02 0.02 0.02 0.02 0.02 0.03 0.03 0.03 0.04 0.06 0.06 0.06 0.06 0.06 0.06 0.09 0.09 0.09 0.06 0.06 0.06 0.05 0.05 0.04 0.03 0.03 0.05 0.05 0.05 0.05 0.06 0.08 0.11 0.12 0.12 0.14
0.01 0.02 0.02 0.02 0.02 0.02 0.02 0.04 0.04 0.04 0.03 0.03 0.03 0.04 0.05 0.05 0.04 0.04 0.07 0.12 0.10 0.09 0.11 0.15 0.15 0.10 0.08 0.06 0.04 0.05 0.04 0.03 0.03 0.04 0.04 0.04 0.05 0.06 0.08 0.11 0.11 0.12 0.16
0.01 0.01 0.02 0.02 0.03 0.02 0.02 0.03 0.03 0.04 0.04 0.04 0.03 0.03 0.03 0.03 0.05 0.05 0.10 0.16 0.14 0.13 0.13 0.16 0.16 0.13 0.11 0.08 0.05 0.04 0.03 0.04 0.04 0.04 0.04 0.04 0.03 0.05 0.06 0.08 0.09 0.10 0.12
0.01 0.01 0.01 0.02 0.03 0.03 0.02 0.02 0.02 0.03 0.03 0.04 0.03 0.03 0.04 0.04 0.05 0.06 0.05 0.07 0.10 0.12 0.11 0.12 0.11 0.10 0.10 0.08 0.06 0.05 0.03 0.04 0.04 0.05 0.06 0.06 0.05 0.05 0.06 0.09 0.09 0.08 0.10
0.00 0.00 0.01 0.02 0.03 0.03 0.02 0.01 0.01 0.01 0.02 0.03 0.03 0.03 0.03 0.04 0.05 0.06 0.03 0.03 0.06 0.08 0.10 0.11 0.09 0.08 0.09 0.08 0.06 0.06 0.05 0.04 0.05 0.06 0.07 0.05 0.04 0.03 0.04 0.05 0.08 0.08 0.08
0.00 0.00 0.01 0.02 0.02 0.02 0.01 0.01 0.01 0.01 0.02 0.02 0.02 0.02 0.02 0.02 0.03 0.02 0.02 0.03 0.03 0.05 0.08 0.08 0.06 0.06 0.06 0.07 0.08 0.07 0.06 0.04 0.04 0.05 0.06 0.04 0.03 0.04 0.04 0.04 0.05 0.07 0.07
0.01 0.01 0.01 0.01 0.02 0.02 0.01 0.01 0.01 0.02 0.02 0.02 0.01 0.02 0.03 0.02 0.02 0.03 0.03 0.05 0.05 0.04 0.04 0.05 0.05 0.04 0.04 0.06 0.08 0.08 0.07 0.05 0.04 0.04 0.04 0.04 0.04 0.05 0.05 0.04 0.05 0.05 0.07
0.00 0.00 0.00 0.01 0.01 0.01 0.01 0.01 0.01 0.02 0.02 0.03 0.02 0.01 0.03 0.03 0.03 0.03 0.04 0.06 0.05 0.04 0.04 0.04 0.03 0.03 0.04 0.05 0.06 0.06 0.07 0.07 0.05 0.04 0.04 0.04 0.03 0.04 0.04 0.04 0.04 0.04 0.04
0.00 0.00 0.00 0.01 0.01 0.01 0.01 0.01 0.01 0.01 0.02 0.02 0.02 0.01 0.02 0.03 0.03 0.03 0.04 0.05 0.05 0.05 0.05 0.04 0.03 0.02 0.03 0.04 0.04 0.03 0.03 0.03 0.04 0.04 0.04 0.04 0.04 0.04 0.04 0.04 0.05 0.05 0.05
0.00 0.01 0.01 0.01 0.00 0.00 0.00 0.00 0.00 0.00 0.01 0.01 0.01 0.01 0.01 0.02 0.02 0.03 0.04 0.03 0.03 0.04 0.04 0.04 0.03 0.02 0.03 0.03 0.03 0.02 0.02 0.01 0.02 0.02 0.02 0.03 0.03 0.03 0.03 0.03 0.04 0.05 0.04
0.01 0.01 0.01 0.01 0.00 0.00 0.00 0.00 0.00 0.00 0.00 0.00 0.00 0.01 0.01 0.01 0.02 0.03 0.05 0.03 0.03 0.03 0.02 0.03 0.03 0.03 0.02 0.03 0.03 0.04 0.03 0.02 0.01 0.02 0.02 0.01 0.01 0.02 0.03 0.03 0.03 0.03 0.03
0.01 0.01 0.01 0.01 0.00 0.00 0.00 0.00 0.01 0.00 0.00 0.00 0.01 0.01 0.01 0.01 0.02 0.03 0.04 0.04 0.04 0.03 0.02 0.03 0.03 0.03 0.02 0.01 0.02 0.03 0.04 0.04 0.03 0.02 0.03 0.02 0.02 0.02 0.01 0.01 0.01 0.01 0.01
MSLP
1006.49 1006.14 1006.00 1006.09 1006.39 1006.85 1007.39 1007.94 1008.45 1008.89 1009.29 1009.67 1010.06 1010.51 1011.01 1011.56 1012.12 1012.65 1013.09 1013.43 1013.67 1013.82 1013.93 1014.01 1014.12 1014.27 1014.46 1014.67 1014.89 1015.10 1015.28 1015.43 1015.57 1015.69 1015.83 1015.97 1016.12 1016.26 1016.38 1016.47 1016.52 1016.53 1016.54
1006.19 1005.98 1005.97 1006.18 1006.57 1007.08 1007.66 1008.22 1008.74 1009.20 1009.62 1010.02 1010.44 1010.92 1011.44 1011.99 1012.54 1013.03 1013.44 1013.74 1013.94 1014.06 1014.15 1014.23 1014.34 1014.50 1014.69 1014.91 1015.14 1015.34 1015.53 1015.69 1015.84 1015.99 1016.13 1016.28 1016.42 1016.54 1016.64 1016.69 1016.70 1016.69 1016.68
1005.87 1005.81 1005.94 1006.25 1006.73 1007.30 1007.90 1008.49 1009.03 1009.50 1009.94 1010.37 1010.82 1011.31 1011.84 1012.38 1012.89 1013.34 1013.70 1013.95 1014.12 1014.23 1014.32 1014.42 1014.55 1014.73 1014.94 1015.17 1015.39 1015.60 1015.79 1015.95 1016.11 1016.26 1016.41 1016.56 1016.70 1016.81 1016.88 1016.91 1016.90 1016.88 1016.87
1005.63 1005.71 1005.96 1006.37 1006.92 1007.53 1008.16 1008.76 1009.31 1009.80 1010.26 1010.71 1011.18 1011.68 1012.20 1012.71 1013.18 1013.58 1013.89 1014.12 1014.27 1014.39 1014.50 1014.63 1014.80 1015.00 1015.23 1015.47 1015.69 1015.89 1016.06 1016.22 1016.37 1016.52 1016.67 1016.82 1016.95 1017.06 1017.12 1017.14 1017.14 1017.13 1017.13
1005.52 1005.73 1006.09 1006.58 1007.17 1007.81 1008.45 1009.05 1009.60 1010.11 1010.58 1011.05 1011.53 1012.03 1012.53 1013.01 1013.44 1013.80 1014.08 1014.28 1014.43 1014.57 1014.72 1014.89 1015.10 1015.34 1015.59 1015.83 1016.04 1016.22 1016.37 1016.50 1016.64 1016.78 1016.92 1017.07 1017.20 1017.30 1017.36 1017.39 1017.40 1017.40 1017.43
1005.60 1005.91 1006.34 1006.87 1007.48 1008.12 1008.75 1009.35 1009.89 1010.40 1010.89 1011.38 1011.87 1012.37 1012.86 1013.31 1013.71 1014.04 1014.29 1014.48 1014.65 1014.82 1015.00 1015.22 1015.48 1015.74 1016.00 1016.23 1016.42 1016.56 1016.68 1016.78 1016.89 1017.01 1017.14 1017.28 1017.41 1017.51 1017.58 1017.62 1017.65 1017.68 1017.73
1005.85 1006.22 1006.69 1007.24 1007.84 1008.46 1009.06 1009.64 1010.18 1010.69 1011.20 1011.71 1012.22 1012.72 1013.20 1013.64 1014.01 1014.31 1014.55 1014.75 1014.93 1015.13 1015.35 1015.61 1015.89 1016.17 1016.42 1016.63 1016.79 1016.89 1016.97 1017.03 1017.11 1017.21 1017.33 1017.46 1017.58 1017.69 1017.76 1017.81 1017.85 1017.89 1017.96
1006.24 1006.64 1007.11 1007.64 1008.21 1008.79 1009.36 1009.91 1010.45 1010.98 1011.51 1012.04 1012.57 1013.09 1013.57 1014.00 1014.35 1014.64 1014.87 1015.07 1015.26 1015.48 1015.73 1016.00 1016.29 1016.57 1016.81 1016.98 1017.10 1017.16 1017.19 1017.22 1017.27 1017.35 1017.46 1017.58 1017.71 1017.81 1017.89 1017.94 1017.98 1018.03 1018.09
1006.69 1007.09 1007.54 1008.04 1008.56 1009.09 1009.63 1010.16 1010.70 1011.25 1011.82 1012.39 1012.95 1013.49 1013.98 1014.40 1014.74 1015.02 1015.24 1015.43 1015.62 1015.84 1016.08 1016.36 1016.63 1016.89 1017.09 1017.24 1017.31 1017.34 1017.33 1017.34 1017.36 1017.43 1017.53 1017.66 1017.78 1017.89 1017.96 1018.01 1018.03 1018.07 1018.11
1007.15 1007.54 1007.96 1008.41 1008.88 1009.37 1009.88 1010.41 1010.97 1011.55 1012.15 1012.76 1013.35 1013.91 1014.41 1014.83 1015.17 1015.42 1015.62 1015.80 1015.97 1016.17 1016.40 1016.64 1016.89 1017.11 1017.27 1017.38 1017.42 1017.42 1017.39 1017.38 1017.40 1017.46 1017.57 1017.70 1017.82 1017.93 1018.00 1018.03 1018.04 1018.04 1018.06
1007.59 1007.97 1008.35 1008.75 1009.18 1009.64 1010.13 1010.67 1011.25 1011.87 1012.51 1013.16 1013.79 1014.37 1014.87 1015.28 1015.60 1015.84 1016.02 1016.16 1016.31 1016.47 1016.66 1016.86 1017.06 1017.23 1017.35 1017.42 1017.44 1017.42 1017.39 1017.38 1017.40 1017.47 1017.58 1017.72 1017.85 1017.96 1018.02 1018.04 1018.03 1018.00 1017.98
1007.99 1008.35 1008.71 1009.08 1009.48 1009.93 1010.42 1010.98 1011.59 1012.24 1012.92 1013.60 1014.24 1014.83 1015.33 1015.73 1016.03 1016.25 1016.40 1016.52 1016.62 1016.74 1016.88 1017.03 1017.17 1017.30 1017.38 1017.42 1017.42 1017.39 1017.36 1017.35 1017.38 1017.47 1017.59 1017.73 1017.87 1017.98 1018.05 1018.07 1018.04 1017.98 1017.92
1008.33 1008.71 1009.06 1009.42 1009.81 1010.26 1010.77 1011.35 1011.98 1012.67 1013.37 1014.06 1014.70 1015.28 1015.77 1016.15 1016.44 1016.64 1016.77 1016.86 1016.93 1017.01 1017.10 1017.19 1017.28 1017.36 1017.40 1017.41 1017.39 1017.36 1017.33 1017.33 1017.37 1017.46 1017.59 1017.74 1017.88 1018.00 1018.08 1018.10 1018.07 1018.00 1017.91
1008.64 1009.04 1009.40 1009.77 1010.18 1010.64 1011.18 1011.78 1012.44 1013.14 1013.84 1014.52 1015.15 1015.70 1016.16 1016.53 1016.80 1016.99 1017.11 1017.19 1017.25 1017.30 1017.34 1017.39 1017.43 1017.46 1017.46 1017.45 1017.41 1017.37 1017.33 1017.33 1017.36 1017.44 1017.56 1017.71 1017.86 1017.98 1018.07 1018.11 1018.09 1018.02 1017.93
1008.91 1009.34 1009.73 1010.13 1010.57 1011.07 1011.63 1012.27 1012.94 1013.64 1014.32 1014.97 1015.56 1016.07 1016.50 1016.85 1017.11 1017.30 1017.43 1017.52 1017.57 1017.60 1017.62 1017.63 1017.63 1017.62 1017.59 1017.54 1017.48 1017.42 1017.37 1017.34 1017.35 1017.40 1017.50 1017.62 1017.76 1017.89 1017.99 1018.05 1018.06 1018.01 1017.93
1009.12 1009.59 1010.03 1010.47 1010.96 1011.50 1012.11 1012.77 1013.45 1014.13 1014.79 1015.39 1015.92 1016.38 1016.78 1017.10 1017.36 1017.56 1017.71 1017.82 1017.89 1017.92 1017.93 1017.92 1017.89 1017.83 1017.77 1017.69 1017.60 1017.51 1017.43 1017.36 1017.33 1017.33 1017.38 1017.46 1017.57 1017.69 1017.79 1017.87 1017.91 1017.90 1017.84
1009.28 1009.79 1010.27 1010.77 1011.31 1011.91 1012.56 1013.25 1013.94 1014.61 1015.22 1015.76 1016.23 1016.63 1016.98 1017.28 1017.53 1017.75 1017.94 1018.08 1018.17 1018.23 1018.24 1018.21 1018.16 1018.08 1017.99 1017.88 1017.76 1017.63 1017.51 1017.40 1017.31 1017.25 1017.22 1017.24 1017.30 1017.38 1017.48 1017.56 1017.62 1017.64 1017.61
1009.39 1009.93 1010.45 1011.00 1011.60 1012.26 1012.96 1013.68 1014.38 1015.03 1015.60 1016.08 1016.48 1016.82 1017.12 1017.39 1017.65 1017.89 1018.10 1018.28 1018.41 1018.48 1018.51 1018.48 1018.42 1018.32 1018.21 1018.08 1017.94 1017.79 1017.63 1017.47 1017.31 1017.18 1017.07 1017.00 1016.99 1017.01 1017.07 1017.14 1017.21 1017.24 1017.24
1009.47 1010.02 1010.57 1011.17 1011.83 1012.54 1013.30 1014.06 1014.77 1015.40 1015.94 1016.36 1016.71 1016.99 1017.24 1017.48 1017.72 1017.97 1018.21 1018.42 1018.58 1018.68 1018.72 1018.70 1018.64 1018.55 1018.43 1018.30 1018.15 1017.99 1017.81 1017.61 1017.39 1017.18 1016.98 1016.82 1016.71 1016.65 1016.64 1016.67 1016.71 1016.74 1016.74
1009.55 1010.10 1010.67 1011.30 1012.00 1012.77 1013.58 1014.37 1015.10 1015.73 1016.24 1016.63 1016.92 1017.15 1017.35 1017.56 1017.78 1018.03 1018.28 1018.51 1018.69 1018.81 1018.87 1018.87 1018.83 1018.74 1018.64 1018.53 1018.40 1018.25 1018.06 1017.85 1017.59 1017.31 1017.03 1016.77 1016.54 1016.38 1016.27 1016.22 1016.21 1016.20 1016.18
1009.70 1010.23 1010.79 1011.43 1012.17 1012.97 1013.82 1014.64 1015.40 1016.04 1016.53 1016.89 1017.14 1017.32 1017.48 1017.65 1017.86 1018.09 1018.33 1018.57 1018.76 1018.90 1018.98 1019.00 1018.98 1018.93 1018.86 1018.79 1018.70 1018.58 1018.42 1018.20 1017.93 1017.60 1017.25 1016.89 1016.55 1016.27 1016.04 1015.88 1015.78 1015.71 1015.64
1009.96 1010.45 1010.99 1011.62 1012.36 1013.19 1014.05 1014.90 1015.67 1016.32 1016.81 1017.16 1017.38 1017.53 1017.65 1017.79 1017.96 1018.17 1018.40 1018.63 1018.83 1018.98 1019.08 1019.12 1019.13 1019.11 1019.09 1019.07 1019.03 1018.96 1018.85 1018.66 1018.39 1018.04 1017.63 1017.19 1016.74 1016.33 1015.98 1015.70 1015.48 1015.32 1015.18
1010.35 1010.80 1011.30 1011.91 1012.63 1013.44 1014.31 1015.16 1015.94 1016.59 1017.09 1017.42 1017.63 1017.76 1017.86 1017.97 1018.11 1018.29 1018.50 1018.72 1018.91 1019.07 1019.17 1019.24 1019.27 1019.30 1019.32 1019.35 1019.38 1019.37 1019.30 1019.15 1018.91 1018.55 1018.11 1017.60 1017.07 1016.55 1016.07 1015.66 1015.32 1015.05 1014.83
1010.88 1011.28 1011.74 1012.30 1012.97 1013.75 1014.58 1015.42 1016.19 1016.84 1017.34 1017.68 1017.89 1018.00 1018.09 1018.17 1018.29 1018.45 1018.63 1018.83 1019.02 1019.17 1019.28 1019.36 1019.42 1019.47 1019.53 1019.60 1019.67 1019.71 1019.69 1019.58 1019.36 1019.02 1018.56 1018.02 1017.42 1016.81 1016.23 1015.70 1015.25 1014.88 1014.57
1011.50 1011.87 1012.28 1012.77 1013.38 1014.10 1014.88 1015.68 1016.42 1017.06 1017.55 1017.89 1018.10 1018.22 1018.30 1018.37 1018.47 1018.61 1018.78 1018.97 1019.14 1019.28 1019.39 1019.47 1019.53 1019.59 1019.66 1019.75 1019.83 1019.90 1019.91 1019.84 1019.64 1019.32 1018.87 1018.31 1017.68 1017.02 1016.36 1015.74 1015.20 1014.73 1014.35
1012.17 1012.51 1012.87 1013.30 1013.83 1014.47 1015.18 1015.92 1016.62 1017.23 1017.71 1018.05 1018.27 1018.40 1018.47 1018.55 1018.64 1018.76 1018.92 1019.08 1019.24 1019.37 1019.47 1019.53 1019.58 1019.62 1019.67 1019.74 1019.81 1019.87 1019.89 1019.82 1019.65 1019.35 1018.92 1018.38 1017.75 1017.06 1016.37 1015.71 1015.10 1014.57 1014.12
Thickness
5781 5784 5784 5783 5783 5783 5783 5783 5784 5784 5784 5783 5782 5781 5781 5780 5779 5778 5778 5777 5776 5775 5774 5773 5771 5770 5769 5768 5767 5765 5764 5763 5761 5761 5759 5758 5757 5756 5755 5754 5753 5752 5751
5784 5784 5784 5783 5782 5782 5782 5782 5783 5782 5782 5782 5781 5780 5780 5779 5778 5778 5777 5776 5775 5774 5773 5772 5770 5769 5768 5767 5765 5764 5763 5761 5760 5759 5758 5757 5755 5755 5754 5753 5751 5750 5749
5784 5784 5783 5782 5782 5781 5781 5781 5781 5781 5780 5780 5780 5779 5778 5778 5777 5777 5776 5775 5774 5773 5772 5771 5770 5768 5767 5766 5764 5763 5761 5760 5759 5757 5756 5755 5754 5753 5752 5751 5750 5748 5747
5784 5783 5783 5782 5781 5780 5780 5779 5779 5779 5779 5779 5778 5778 5777 5777 5777 5776 5775 5775 5774 5773 5772 5770 5769 5768 5766 5765 5763 5762 5760 5759 5757 5755 5754 5753 5752 5752 5751 5750 5748 5747 5746
5783 5783 5782 5781 5780 5779 5779 5778 5778 5778 5777 5777 5777 5777 5776 5776 5775 5775 5775 5774 5773 5773 5772 5770 5769 5768 5766 5765 5763 5761 5760 5758 5756 5755 5754 5752 5751 5750 5750 5748 5747 5745 5744
5782 5782 5781 5780 5779 5778 5778 5777 5777 5777 5776 5776 5776 5776 5775 5774 5774 5774 5774 5773 5773 5772 5771 5769 5768 5767 5766 5765 5763 5761 5760 5758 5756 5755 5753 5751 5750 5749 5748 5747 5746 5744 5742
5781 5781 5780 5779 5779 5778 5777 5776 5776 5775 5775 5775 5774 5774 5774 5773 5772 5772 5772 5772 5772 5771 5769 5768 5767 5766 5765 5764 5763 5761 5759 5757 5756 5754 5752 5751 5749 5748 5747 5746 5745 5743 5741
5781 5780 5780 5778 5778 5777 5776 5775 5775 5774 5774 5773 5773 5773 5773 5772 5771 5771 5771 5771 5770 5770 5769 5767 5765 5764 5763 5763 5762 5760 5758 5756 5754 5753 5751 5750 5749 5747 5746 5745 5744 5742 5740
5781 5780 5779 5778 5778 5777 5776 5775 5774 5774 5773 5773 5772 5772 5771 5771 5770 5770 5769 5770 5770 5769 5768 5766 5764 5763 5762 5761 5761 5759 5756 5754 5753 5751 5750 5749 5748 5747 5746 5745 5744 5742 5740
5780 5779 5778 5778 5777 5776 5775 5775 5774 5773 5773 5772 5771 5771 5770 5770 5769 5769 5769 5769 5769 5768 5767 5765 5764 5762 5761 5760 5759 5756 5755 5753 5752 5750 5749 5748 5747 5746 5746 5744 5743 5741 5739
5778 5778 5778 5777 5777 5776 5775 5774 5773 5772 5771 5770 5770 5769 5769 5768 5768 5768 5768 5768 5767 5766 5766 5765 5763 5761 5760 5758 5757 5755 5753 5752 5751 5749 5748 5748 5747 5746 5745 5744 5742 5741 5738
5775 5777 5777 5776 5776 5775 5774 5773 5772 5771 5770 5769 5769 5769 5768 5767 5767 5766 5766 5767 5766 5765 5765 5764 5762 5760 5758 5757 5755 5753 5752 5751 5750 5748 5747 5747 5746 5745 5744 5743 5742 5740 5738
5776 5776 5777 5776 5775 5774 5773 5772 5771 5770 5769 5769 5768 5768 5767 5766 5766 5765 5765 5765 5764 5764 5763 5762 5761 5759 5757 5755 5754 5752 5751 5750 5748 5747 5746 5746 5745 5744 5743 5743 5741 5740 5738
5776 5776 5777 5777 5775 5774 5773 5772 5771 5770 5769 5768 5768 5767 5766 5766 5765 5765 5764 5764 5764 5763 5761 5760 5759 5757 5756 5754 5752 5751 5750 5749 5747 5746 5745 5744 5743 5743 5742 5742 5741 5739 5737
5776 5776 5777 5777 5776 5774 5773 5772 5771 5770 5769 5768 5767 5767 5767 5766 5765 5764 5764 5764 5763 5762 5761 5759 5757 5755 5754 5752 5751 5750 5749 5747 5745 5744 5743 5743 5742 5742 5741 5740 5739 5737 5736
5777 5777 5778 5777 5777 5775 5773 5772 5771 5770 5769 5768 5767 5767 5767 5766 5765 5765 5764 5764 5762 5761 5760 5758 5756 5754 5752 5751 5749 5748 5747 5745 5743 5742 5742 5741 5741 5740 5739 5738 5737 5736 5735
5779 5779 5778 5778 5777 5775 5774 5773 5772 5771 5769 5768 5767 5767 5767 5766 5765 5765 5764 5763 5762 5761 5759 5757 5755 5753 5751 5749 5747 5746 5744 5743 5742 5741 5740 5739 5738 5738 5737 5736 5735 5734 5732
5780 5779 5779 5780 5777 5776 5774 5773 5772 5771 5770 5769 5768 5767 5767 5766 5765 5764 5763 5762 5761 5760 5758 5756 5754 5751 5748 5746 5744 5743 5742 5741 5740 5739 5738 5737 5736 5735 5734 5734 5733 5731 5730
5782 5781 5779 5779 5778 5776 5774 5773 5772 5771 5770 5769 5768 5768 5767 5766 5765 5764 5763 5761 5760 5759 5757 5755 5752 5749 5745 5743 5742 5741 5739 5738 5737 5737 5735 5734 5733 5732 5732 5731 5730 5729 5728
5784 5782 5780 5779 5778 5777 5775 5773 5771 5770 5770 5769 5768 5768 5767 5766 5765 5764 5762 5760 5759 5758 5755 5753 5750 5748 5745 5742 5741 5738 5736 5735 5734 5734 5733 5732 5731 5730 5728 5728 5727 5727 5726
5784 5782 5781 5779 5778 5776 5773 5771 5769 5768 5768 5768 5768 5767 5767 5766 5765 5763 5761 5759 5758 5755 5753 5751 5749 5746 5742 5741 5737 5733 5732 5733 5732 5731 5730 5729 5728 5727 5726 5725 5724 5723 5723
5784 5783 5781 5780 5779 5777 5775 5773 5772 5770 5769 5768 5768 5767 5766 5765 5764 5763 5760 5758 5757 5755 5752 5750 5748 5744 5741 5739 5735 5729 5725 5725 5727 5728 5727 5726 5725 5724 5723 5722 5721 5721 5720
5785 5784 5784 5781 5780 5778 5777 5774 5772 5770 5768 5767 5766 5765 5765 5765 5764 5762 5760 5758 5756 5754 5751 5749 5747 5744 5739 5737 5736 5731 5724 5719 5721 5724 5724 5723 5722 5722 5721 5720 5719 5718 5716
5787 5787 5784 5782 5781 5779 5777 5774 5771 5767 5764 5764 5765 5765 5765 5764 5763 5761 5760 5758 5756 5753 5751 5749 5747 5744 5741 5736 5734 5733 5730 5727 5721 5717 5718 5720 5720 5719 5718 5718 5717 5715 5714
5789 5787 5785 5783 5781 5779 5777 5775 5771 5768 5767 5765 5765 5764 5763 5762 5762 5760 5759 5757 5755 5752 5750 5748 5746 5744 5741 5738 5734 5731 5728 5726 5723 5718 5713 5714 5716 5716 5716 5715 5713 5712 5712
5790 5788 5785 5782 5780 5779 5777 5775 5772 5769 5767 5764 5763 5761 5761 5761 5760 5759 5758 5756 5754 5752 5749 5747 5745 5743 5741 5738 5735 5733 5729 5725 5721 5718 5714 5712 5711 5712 5713 5712 5711 5710 5709